This demonstration page uses our WeatherBlox Daily Observations layout. Learn more.

Left ArrowRight Arrow

40.92945, -100.16068

Hourly Observations for September 28, 2021

Temp ( °F °C ) Dew Point ( °F °C ) Humidity (%) Winds ( mph kmh ) Pressure ( in mb ) Visibility ( mi km ) Precip ( " mm )
12:15 am 00:15 Clear 56 13.4 50 10 80 80 N N/A 29.85 1011 10 16 N/A
12:35 am 00:35 Clear 57 13.8 49 9.6 76 76 N N/A 29.85 1011 10 16 N/A
12:55 am 00:55 Clear 54 12.4 49 9.3 82 82 N N/A 29.86 1011 10 16 N/A
1:15 am 01:15 Clear 55 12.9 49 9.2 78 78 N N/A 29.84 1011 10 16 N/A
1:35 am 01:35 Clear 54 12.1 48 9 82 82 N N/A 29.84 1011 10 16 N/A
1:55 am 01:55 Clear 54 12.1 49 9.4 84 84 N N/A 29.84 1011 10 16 N/A
2:15 am 02:15 Clear 54 12.3 49 9.4 83 83 N N/A 29.83 1010 10 16 N/A
2:35 am 02:35 Clear 54 12.1 49 9.6 85 85 N N/A 29.83 1010 7 11 N/A
2:55 am 02:55 Clear 55 12.6 49 9.4 81 81 N N/A 29.83 1010 10 16 N/A
3:15 am 03:15 Clear 55 12.5 49 9.4 82 82 N N/A 29.82 1010 10 16 N/A
3:35 am 03:35 Clear 53 11.5 49 9.6 88 88 N N/A 29.83 1010 10 16 N/A
3:55 am 03:55 Clear 51 10.8 48 8.9 88 88 N N/A 29.82 1010 10 16 N/A
4:15 am 04:15 Clear 51 10.5 48 8.9 90 90 N N/A 29.83 1010 10 16 N/A
4:35 am 04:35 Clear 51 10.5 47 8.6 88 88 N N/A 29.83 1010 10 16 N/A
4:55 am 04:55 Clear 51 10.3 48 8.8 91 91 N N/A 29.83 1010 10 16 N/A
5:15 am 05:15 Clear 51 10.6 49 9.4 92 92 N N/A 29.84 1010 10 16 N/A
5:35 am 05:35 Clear 50 10.1 48 8.9 92 92 N N/A 29.83 1010 10 16 N/A
5:55 am 05:55 Clear 50 9.9 48 8.7 92 92 N N/A 29.83 1010 10 16 N/A
6:15 am 06:15 Clear 50 9.9 47 8.6 92 92 ENE 3 6 29.83 1010 7 11 N/A
6:35 am 06:35 Clear with Mist and Fog 51 10.3 48 9 92 92 N N/A 29.83 1010 5 8 N/A
6:55 am 06:55 Clear 49 9.5 47 8.4 93 93 N N/A 29.84 1010 10 16 N/A
7:15 am 07:15 Clear 49 9.5 47 8.5 94 94 N N/A 29.84 1010 10 16 N/A
7:35 am 07:35 Sunny with Mist and Fog 48 9 46 7.8 92 92 N N/A 29.85 1011 5 8 N/A
7:55 am 07:55 Sunny 49 9.5 47 8.1 91 91 N N/A 29.85 1011 7 11 N/A
8:15 am 08:15 Sunny with Mist and Fog 49 9.7 47 8.4 92 92 N N/A 29.84 1011 4 6 N/A
8:35 am 08:35 Sunny with Mist and Fog 53 11.9 50 10.2 89 89 N N/A 29.82 1010 4 6 N/A
8:55 am 08:55 Hazy 58 14.3 53 11.6 84 84 E 3 6 29.81 1010 2 3 N/A
9:15 am 09:15 Hazy 62 16.5 54 12.2 76 76 SE 3 6 29.78 1009 3 4 N/A
9:35 am 09:35 Hazy 64 17.7 54 12.4 71 71 N N/A 29.77 1008 4 6 N/A
9:55 am 09:55 Sunny 65 18.4 55 12.6 69 69 SSE 5 7 29.78 1008 10 16 N/A
10:15 am 10:15 Sunny 68 20 56 13.1 65 65 SSE 5 7 29.76 1008 10 16 N/A
10:35 am 10:35 Sunny 70 20.9 56 13.2 62 62 SSE 5 7 29.75 1008 10 16 N/A
10:55 am 10:55 Sunny 73 22.6 57 13.9 58 58 SE 5 7 29.74 1007 10 16 N/A
11:15 am 11:15 Sunny 76 24.4 57 13.9 52 52 SSE 7 11 29.72 1006 10 16 N/A
11:35 am 11:35 Sunny 79 26.1 54 12.1 42 42 SSE 8 13 29.70 1006 10 16 N/A
11:55 am 11:55 Sunny 81 27.3 54 12.3 39 39 SE 9 15 29.68 1005 10 16 N/A
12:15 pm 12:15 Sunny 84 28.9 54 12 35 35 SSE 8 13 29.67 1005 10 16 N/A
12:35 pm 12:35 Sunny 84 28.7 54 12.3 36 36 SSE 12 19 29.67 1005 10 16 N/A
12:55 pm 12:55 Sunny 85 29.4 54 12.1 34 34 SSE 12 19 29.66 1005 10 16 N/A
1:15 pm 13:15 Sunny 87 30.5 54 12.1 32 32 S 12 19 29.65 1004 10 16 N/A
1:35 pm 13:35 Sunny 85 29.5 53 11.7 33 33 SSE 14 22 29.65 1004 10 16 N/A
1:55 pm 13:55 Sunny 85 29.6 54 12 34 34 S 10 17 29.64 1004 10 16 N/A
2:15 pm 14:15 Sunny 87 30.8 53 11.7 31 31 S 17 28 29.62 1003 10 16 N/A
2:35 pm 14:35 Sunny 88 31 52 11.1 29 29 S 17 28 29.61 1003 10 16 N/A
2:55 pm 14:55 Sunny 87 30.8 53 11.8 31 31 SSE 15 24 29.60 1003 10 16 N/A
3:15 pm 15:15 Sunny 89 31.6 52 11.3 29 29 SSE 16 26 29.60 1002 10 16 N/A
3:35 pm 15:35 Sunny 87 30.3 53 11.6 32 32 S 17 28 29.61 1003 10 16 N/A
3:55 pm 15:55 Sunny 89 31.9 53 11.4 28 28 SSE 17 28 29.59 1002 10 16 N/A
4:15 pm 16:15 Sunny 89 31.5 52 11 28 28 S 21 33 29.59 1002 10 16 N/A
4:35 pm 16:35 Sunny 89 31.7 53 11.9 30 30 SSE 20 31 29.58 1002 10 16 N/A
4:55 pm 16:55 Sunny 87 30.8 54 12.1 32 32 SSE 18 30 29.58 1002 10 16 N/A
5:15 pm 17:15 Sunny 88 30.9 53 11.9 31 31 SSE 23 37 29.58 1002 10 16 N/A
5:35 pm 17:35 Sunny 87 30.8 53 11.9 31 31 SSE 18 30 29.58 1002 10 16 N/A
5:55 pm 17:55 Sunny 86 30.2 54 12.2 33 33 SSE 16 26 29.59 1002 10 16 N/A
6:15 pm 18:15 Sunny 85 29.7 54 12.4 34 34 SSE 16 26 29.58 1002 10 16 N/A
6:35 pm 18:35 Sunny 84 29.1 54 12.3 35 35 SE 16 26 29.59 1002 10 16 N/A
6:55 pm 18:55 Sunny 83 28.4 55 12.6 38 38 SE 13 20 29.59 1002 10 16 N/A
7:15 pm 19:15 Sunny 82 27.6 55 12.7 40 40 SE 13 20 29.60 1002 10 16 N/A
7:35 pm 19:35 Clear 80 26.8 55 12.7 42 42 SE 10 17 29.61 1003 10 16 N/A
7:55 pm 19:55 Clear 77 25.2 55 13 47 47 SE 10 17 29.63 1003 10 16 N/A
8:15 pm 20:15 Clear 76 24.5 56 13.1 49 49 SE 9 15 29.64 1004 10 16 N/A
8:35 pm 20:35 Clear 74 23.6 56 13.3 53 53 ESE 7 11 29.65 1004 10 16 N/A
8:55 pm 20:55 Clear 74 23.2 56 13.4 54 54 ESE 8 13 29.66 1004 10 16 N/A
9:15 pm 21:15 Clear 73 22.8 56 13.5 56 56 SE 9 15 29.67 1005 10 16 N/A
9:35 pm 21:35 Clear 72 22.1 56 13.5 58 58 SE 8 13 29.68 1005 10 16 N/A
9:55 pm 21:55 Clear 71 21.4 56 13.6 61 61 SE 9 15 29.68 1005 10 16 N/A
10:15 pm 22:15 Clear 69 20.8 57 13.7 64 64 ESE 8 13 29.69 1005 10 16 N/A
10:35 pm 22:35 Clear 69 20.7 57 14 66 66 SE 8 13 29.70 1006 10 16 N/A
10:55 pm 22:55 Clear 69 20.8 57 14 65 65 SE 8 13 29.70 1006 10 16 N/A
11:15 pm 23:15 Clear 69 20.7 57 14 66 66 SE 10 17 29.70 1006 10 16 N/A
11:35 pm 23:35 Clear 70 21.1 57 13.8 63 63 SE 10 17 29.69 1006 10 16 N/A
11:55 pm 23:55 Clear 70 21 56 13.6 63 63 SE 9 15 29.69 1006 10 16 N/A

Powered by AerisWeather